{"data":{"norad_id":59199,"intl_designator":"2024-045X","name":"STARLINK-31567","alt_names":[],"object_type":"PAYLOAD","status":"ACTIVE","operator":null,"country":"US","launch_date":"2024-03-10","launch_site_code":"AFETR","launch_vehicle":null,"mission":null,"orbit_class":"UNKNOWN","rcs_meters":null,"size_class":null,"mass_kg":null,"dimensions":null,"purposes":["comms"],"wikipedia_slug":null,"has_3d_model":false,"image_url":null,"decayed_at":null,"tle_current":{"epoch":"2026-09-19T18:14:11.923008Z","epoch_age_seconds":222773,"freshness":"STALE","line1":"1 59199U 24045X   26262.75986022  .00000794  00000+0  38376-4 0  9995","line2":"2 59199  43.0015  76.3802 0001255 260.2860  99.7850 15.27581321142843","mean_motion":15.27581321,"eccentricity":0.0001255,"inclination_deg":43.0015,"raan_deg":76.3802,"arg_perigee_deg":260.286,"mean_anomaly_deg":99.785,"bstar":3.8376e-5,"rev_number":14284,"period_min":94.266667194996,"perigee_km":482.18406213464,"apogee_km":483.90621885191,"semimajor_km":6861.1821404933,"source":"CELESTRAK","updated_at":"2026-09-21T09:00:34.066833Z"}}}